Regional Weather Roundup
Issued by NWS

Home | Current Version | Previous Version | Text Only | Print | Product List | Glossary Off
Versions: 1 2 3 4 5 6 7 8 9 10 11 12 13 14 15 16 17 18 19 20 21 22 23 24 25 26 27 28

000
ASUS45 KSLC 250810
RWRUT

UTAH REGIONAL WEATHER ROUNDUP
NATIONAL WEATHER SERVICE SALT LAKE CITY UT
200 AM MDT MON SEP 25 2017

UTZ001>011-023>025-250900-

NORTHERN UTAH

CITY           SKY/WX    TMP DP  RH WIND       PRES   REMARKS
BRIGHAM CITY   CLOUDY    45  40  81 CALM      30.13S
HILL AFB       CLOUDY    43  38  83 CALM      30.12F
LOGAN          CLOUDY    44  42  93 CALM      30.12R
OGDEN          CLOUDY    45  39  79 S5        30.12S
SALT LAKE CITY CLOUDY    45  42  89 SE3       30.12S
TOOELE VALLEY  MOCLDY    41  36  81 S7        30.13S
WENDOVER       CLEAR     43  34  70 W3        30.11R
HEBER CITY     CLOUDY    37  36  93 CALM      30.12F
WEST JORDAN    CLOUDY    43  43 100 S6        30.13S

$$

UTZ011>015-024>027-250900-

CENTRAL/NORTHEAST UTAH

CITY           SKY/WX    TMP DP  RH WIND       PRES   REMARKS
PROVO AIRPORT  CLOUDY    44  40  85 SE5       30.15S
MOAB/CANYONLAN CLEAR     44  31  60 CALM      30.06R
DELTA          CLEAR     36  34  93 NE6       30.13S WCI  31
PRICE          CLEAR     35  31  85 NE5       30.10S WCI  31
ROOSEVELT      CLEAR     37  34  87 W5        30.12S WCI  34
VERNAL         CLEAR     38  36  92 W3        30.10R

$$

UTZ013>016-019>022-027-250900-

SOUTHERN UTAH

CITY           SKY/WX    TMP DP  RH WIND       PRES   REMARKS
BRYCE CANYON   CLEAR     25  21  85 N7        30.14F WCI  17
CEDAR CITY     CLEAR     33  31  92 CALM      30.11R
MILFORD        CLEAR     34  32  92 CALM      30.12S
ST GEORGE      CLOUDY    56  30  37 NE8       30.02S
HANKSVILLE     CLEAR     41  28  60 CALM      30.09S
BLANDING         N/A     41  21  44 CALM      30.12R

$$

REGIONAL REPORTS     COLORADO/ARIZONA

CITY           SKY/WX    TMP DP  RH WIND       PRES   REMARKS
CRAIG, CO      CLEAR     31  27  85 CALM      30.11R
GRAND JUNCTION CLEAR     38  30  73 CALM      30.05S
RIFLE, CO      CLEAR     39  31  72 CALM      30.09R
MONTROSE, CO   CLEAR     37  27  67 SE7       30.10S WCI  32
CORTEZ, CO     CLEAR     31  26  82 NE3       30.06S
PAGE, AZ       CLEAR     54  26  34 W5        30.01F
GRAND CANYON   CLEAR     26  12  55 NE3       30.09S
KINGMAN, AZ    CLEAR     46  26  45 SE3       30.00S
FLAGSTAFF, AZ  CLEAR     27  10  49 CALM      30.08S

$$

REGIONAL REPORTS    NEVADA/IDAHO/WYOMING

CITY           SKY/WX    TMP DP  RH WIND       PRES   REMARKS
LAS VEGAS, NV  CLEAR     64  27  24 NW7       29.97S
ELY, NY        CLEAR     29  26  89 S9        30.15F WCI  20
ELKO, NV       CLEAR     33  29  85 CALM      30.12S
POCATELLO, ID  CLOUDY    42  35  76 S7        30.11R
BURLEY, ID     CLEAR     38  31  76 SW6       30.07F WCI  33
FORT BRIDGER,  CLOUDY    36  36 100 W12       30.15R WCI  28
EVANSTON, WY   CLOUDY    34  34 100 SW9       30.13S WCI  27
ROCK SPRINGS,  CLOUDY    35  33  92 CALM      30.11R

$$




USA.gov is the U.S. government's official web portal to all federal, state and local government web resources and services.